Vertical_Velocity
0 0 0 0 -0 -0 -0 -1 -1 -0 -0 -0 -0 -1 -1 -1 -2 -2 -3 -1 -1 -1 -1 -1 -1 -1 -1 -1 0 0 -0 -0 0 -0 -0 -1 -1 -1 -1 -1 -1 -1 -1 -2 -1 -1 -1 -1 -0 -1 -1 -1 0 -1 -2 -1 1 -0 -2 -1 0 0 0 1 0 1 1 1 -1
0 0 0 -0 -1 -1 -1 -2 -2 -2 -2 -2 -1 -1 -1 -2 -2 -2 -3 -2 -1 -1 -1 -1 -1 -0 -0 -2 -1 -0 -0 -1 -0 -0 -0 -0 -1 -1 -1 -1 -1 -1 -1 -1 -2 -1 -1 -1 -0 -0 -1 -1 0 0 -1 -2 1 1 0 -2 -0 0 1 1 0 1 1 1 0
-0 -1 -1 -1 -1 -2 -2 -3 -3 -3 -3 -3 -2 -2 -1 -2 -1 -1 -2 -2 -2 -1 -1 -1 -2 -1 -0 -1 -2 -1 -1 -1 -0 -0 -0 -1 -1 -1 -1 -1 -1 -1 -1 -1 -2 -2 -2 -1 -1 -1 -1 -1 -0 0 -0 -1 -0 1 2 1 0 0 0 0 1 1 1 1 1
-1 -1 -2 -2 -2 -2 -2 -2 -2 -2 -2 -2 -2 -2 -1 -1 -1 -1 -1 -2 -2 -2 -2 -1 -2 -1 -1 0 -1 -2 -2 -1 -1 -1 -1 -1 -0 -1 -1 -0 -0 -1 -1 -1 -1 -2 -2 -2 -2 -1 -1 -1 -1 -1 -0 -0 -1 0 1 2 2 2 1 0 0 1 2 1 1
-2 -2 -2 -2 -2 -2 -2 -1 -1 -1 -2 -1 -1 -1 -1 -1 -1 -1 -1 -1 -2 -2 -2 -2 -2 -2 -1 -0 -1 -1 -2 -2 -2 -1 -1 -2 -1 -1 -1 -2 -1 -1 -2 -2 -2 -2 -2 -2 -2 -2 -1 0 -1 -2 -1 1 0 -0 0 1 1 2 2 0 -0 2 3 1 0
-2 -2 -2 -1 -1 -1 -1 -1 -0 -0 -1 -1 -1 -1 -2 -1 -1 -1 -1 -1 -2 -2 -2 -1 -2 -2 -2 -1 -1 -1 -1 -2 -2 -2 -1 -2 -2 -1 -1 -3 -2 -2 -2 -2 -2 -3 -2 -1 -2 -3 -3 0 0 -1 -2 -0 0 0 1 1 0 1 2 1 -1 1 3 1 1
-1 -1 -1 -1 -1 -1 -1 -1 -1 -1 -1 -1 -1 -1 -1 -1 -1 -1 -1 -1 -1 -2 -2 -1 -1 -2 -2 -1 -1 -1 -1 -2 -3 -2 -2 -2 -3 -2 -2 -2 -3 -2 -2 -2 -2 -3 -3 -2 -1 -2 -3 -2 -0 -0 -1 0 -0 0 1 3 0 0 2 3 -0 -0 1 3 1
-1 -1 -1 -1 -1 -1 -1 -2 -1 -1 -2 -2 -1 -1 -1 -1 -1 -1 -1 -1 -1 -1 -1 -1 -1 -1 -2 -2 -2 -2 -2 -1 -2 -3 -3 -1 -2 -2 -2 -1 -1 -2 -2 -1 -1 -2 -3 -2 -1 -2 -2 -1 -1 -1 -1 1 1 -0 -0 2 2 0 0 3 2 -0 -1 1 2
-2 -2 -2 -2 -2 -2 -2 -2 -2 -1 -1 -2 -2 -1 -1 -1 -1 -1 -1 -1 -2 -2 -1 -2 -2 -2 -2 -2 -2 -2 -2 -2 -2 -2 -2 -2 -1 -1 -2 -1 -0 -1 -1 -1 -0 -1 -2 -2 -2 -2 -3 -2 -1 -2 -2 -1 2 0 -1 -1 2 1 -0 0 2 1 -2 -2 2
-2 -2 -3 -3 -3 -3 -2 -2 -2 -1 -1 -1 -2 -1 -1 -1 -1 -1 -1 -1 -2 -3 -3 -2 -2 -2 -3 -2 -3 -3 -2 -2 -1 -1 -1 -1 -1 -0 -0 -1 0 0 -0 -2 -1 -1 -1 -1 -1 -2 -3 -3 -1 -2 -3 -3 0 1 -1 -3 0 1 0 -1 2 2 -1 -3 -0
-2 -2 -2 -2 -2 -3 -2 -2 -2 -2 -1 -1 -1 -2 -2 -2 -2 -2 -2 -2 -2 -3 -4 -3 -2 -3 -2 -2 -2 -2 -2 -1 -1 -1 -1 -1 -1 -0 -0 -1 -0 -0 -1 -2 -2 -2 -2 -2 -1 -1 -2 -4 -2 -1 -2 -4 -2 0 0 -2 -1 0 0 -1 1 2 1 -2 -1
-2 -2 -2 -1 -1 -1 -2 -2 -2 -1 -1 -1 -1 -2 -2 -2 -2 -3 -3 -3 -3 -3 -3 -3 -2 -2 -2 -2 -1 -1 -1 -1 -1 -1 -1 -1 -1 -1 -1 -1 -1 -2 -2 -3 -3 -3 -3 -4 -3 -2 -2 -4 -3 -1 -1 -2 -2 -1 -0 -0 0 1 1 -1 0 1 1 0 0
-2 -2 -2 -1 -1 -1 -1 -1 -1 -1 -1 -1 -2 -2 -2 -3 -3 -2 -2 -2 -2 -2 -2 -2 -1 -1 -1 -2 -1 -1 -1 -1 -2 -2 -1 -2 -2 -2 -3 -3 -3 -3 -3 -4 -4 -4 -4 -5 -4 -3 -2 -3 -3 -2 -1 -1 -2 -2 -1 -0 0 1 1 1 1 1 0 0 1
-1 -1 -1 -1 -1 -1 -1 -1 -2 -2 -2 -2 -2 -2 -2 -2 -2 -1 -1 -0 -1 -0 -1 -1 -1 -1 -1 -1 -2 -2 -2 -1 -2 -3 -3 -3 -3 -3 -4 -4 -4 -3 -3 -4 -5 -5 -4 -5 -6 -5 -3 -2 -2 -2 -2 -1 -1 -1 -1 -1 -1 -0 0 1 1 1 0 -1 -0
-2 -2 -1 -1 -1 -1 -1 -1 -2 -2 -2 -2 -2 -1 -1 -1 -1 -0 0 0 0 1 1 -0 -2 -2 -2 -1 -2 -3 -4 -3 -2 -3 -4 -5 -4 -4 -4 -4 -4 -4 -3 -3 -4 -5 -4 -4 -6 -6 -5 -4 -3 -2 -1 -1 -1 -1 -1 -1 -1 -1 -1 -0 1 1 1 0 -1
-2 -2 -2 -1 -1 -1 -1 -1 -1 -1 -1 -1 -1 -0 0 -0 -0 0 1 1 -0 -0 0 -0 -1 -2 -3 -4 -2 -2 -3 -5 -4 -3 -3 -5 -5 -4 -3 -3 -3 -3 -3 -3 -4 -4 -4 -4 -4 -4 -5 -5 -4 -3 -2 -1 -0 -0 -0 -0 -0 -1 -1 -1 -0 -0 -0 1 1
-2 -2 -2 -1 -1 -1 -1 -1 -1 -0 0 0 0 0 0 0 -0 -0 0 1 0 -1 -2 -2 -2 -2 -3 -5 -5 -3 -2 -4 -5 -4 -3 -3 -4 -4 -3 -3 -3 -3 -3 -3 -3 -3 -4 -4 -4 -3 -3 -3 -3 -3 -2 -2 -1 -0 0 1 0 0 -0 -0 -0 -0 -0 -0 1
-2 -2 -2 -1 -1 -1 -1 -1 -0 0 1 1 0 -0 -0 -0 -0 -1 -2 -1 -0 -1 -2 -4 -3 -3 -3 -4 -5 -5 -4 -2 -4 -5 -4 -2 -4 -4 -3 -2 -2 -2 -2 -3 -4 -3 -3 -3 -3 -3 -3 -3 -2 -2 -1 -1 -2 -1 -0 1 0 1 1 1 1 1 1 0 0
-2 -2 -2 -1 -1 -0 -0 0 0 0 0 0 -0 -1 -1 -2 -1 -2 -2 -4 -3 -2 -2 -3 -4 -4 -4 -3 -4 -5 -5 -3 -3 -4 -4 -3 -3 -4 -4 -2 -2 -1 -1 -2 -4 -4 -3 -3 -3 -3 -3 -2 -2 -1 -1 0 -0 -0 0 1 1 1 1 2 2 2 2 2 1
-1 -1 -1 -1 -0 0 0 0 0 -0 -1 -1 -1 -2 -2 -3 -3 -3 -3 -4 -4 -3 -3 -3 -3 -4 -4 -4 -4 -4 -5 -3 -3 -4 -5 -3 -3 -3 -3 -3 -3 -2 -1 -0 -3 -4 -4 -3 -3 -3 -3 -2 -1 -1 -1 -0 0 1 1 2 2 2 2 3 3 3 3 3 3
-1 -1 -1 -0 0 0 -0 -1 -1 -1 -2 -2 -2 -2 -3 -4 -4 -4 -4 -4 -4 -4 -4 -4 -4 -4 -4 -3 -3 -4 -4 -3 -2 -3 -5 -5 -4 -3 -2 -1 -4 -4 -3 -0 -2 -3 -4 -3 -2 -3 -3 -4 -2 -1 1 0 -0 0 1 3 3 3 3 3 3 3 3 3 3
-1 -1 -1 -0 -0 -1 -1 -2 -2 -2 -3 -3 -3 -3 -3 -4 -4 -4 -4 -4 -4 -4 -4 -4 -4 -4 -4 -4 -3 -3 -4 -4 -2 -2 -3 -4 -5 -5 -3 -0 -2 -4 -5 -3 -2 -3 -3 -3 -1 -0 -0 -2 -4 -2 0 1 0 -0 1 2 3 3 3 3 4 3 3 3 3
-2 -1 -1 -1 -1 -1 -2 -2 -3 -3 -3 -3 -4 -4 -4 -4 -4 -4 -4 -4 -4 -4 -4 -4 -4 -4 -4 -5 -4 -3 -3 -4 -4 -3 -2 -2 -4 -6 -6 -3 -1 -2 -3 -3 -3 -3 -4 -4 -4 -2 0 1 -2 -3 -2 -0 -1 -1 -1 -0 1 2 3 3 3 3 2 2 3
-2 -2 -2 -2 -2 -2 -2 -3 -3 -3 -3 -3 -3 -4 -4 -4 -4 -4 -4 -4 -4 -4 -4 -5 -4 -4 -4 -5 -5 -4 -3 -4 -5 -4 -3 -1 -1 -2 -4 -5 -3 -2 -1 -1 -2 -2 -3 -4 -6 -6 -5 -3 -2 -3 -3 -1 -2 -2 -3 -2 -1 -1 0 2 3 3 2 1 1
-2 -2 -2 -2 -2 -2 -2 -2 -3 -3 -3 -4 -4 -4 -4 -4 -4 -3 -3 -4 -4 -4 -3 -4 -4 -4 -3 -3 -4 -5 -5 -4 -4 -5 -5 -3 -1 -0 0 -0 -2 -2 -1 -1 -1 -2 -2 -2 -4 -6 -7 -8 -6 -5 -4 -3 -1 -2 -3 -3 -2 -2 -2 -1 1 3 3 2 1
-2 -2 -2 -2 -2 -2 -2 -2 -3 -3 -4 -4 -4 -4 -4 -4 -4 -3 -3 -3 -3 -4 -3 -3 -4 -4 -4 -3 -3 -4 -5 -5 -4 -4 -4 -4 -3 -2 -1 1 1 0 -1 -2 -2 -2 -1 -2 -3 -4 -6 -8 -8 -7 -6 -5 -3 -1 -1 -2 -2 -1 -1 -2 -1 0 2 3 3
-1 -2 -2 -2 -2 -2 -2 -3 -3 -4 -4 -4 -4 -4 -4 -4 -4 -3 -3 -3 -3 -3 -3 -4 -3 -3 -4 -5 -4 -3 -3 -5 -4 -3 -3 -2 -2 -2 -3 -2 -1 -0 -0 -2 -3 -3 -2 -2 -2 -3 -4 -5 -7 -7 -6 -5 -4 -2 -1 -0 -1 -1 -0 -1 -1 -1 -0 1 2
-1 -1 -1 -2 -2 -3 -3 -4 -4 -4 -4 -4 -4 -4 -3 -3 -3 -3 -4 -4 -3 -3 -3 -5 -4 -3 -3 -5 -5 -3 -3 -3 -4 -4 -3 -2 -0 -0 -1 -2 -3 -2 -2 -1 -4 -3 -2 -2 -2 -2 -2 -3 -5 -6 -5 -4 -4 -3 -2 -0 0 0 -0 -1 -1 -1 -0 -0 0
-1 -1 -1 -1 -2 -3 -4 -4 -4 -4 -4 -3 -3 -3 -3 -3 -3 -3 -3 -3 -4 -4 -4 -5 -6 -5 -3 -3 -4 -4 -3 -1 -2 -3 -4 -4 -3 -1 -1 -1 -3 -3 -2 -1 -3 -3 -2 -2 -1 -1 -1 -2 -3 -4 -4 -4 -3 -3 -3 -2 -1 0 -0 -1 -1 -1 -1 -1 -0
-1 -1 -1 -2 -3 -3 -4 -4 -3 -3 -3 -3 -3 -3 -3 -3 -4 -4 -4 -3 -4 -4 -4 -4 -6 -6 -5 -3 -3 -4 -4 -3 -1 -1 -2 -4 -4 -3 -2 -1 -2 -2 -2 -1 -2 -3 -2 -1 -1 -1 -1 -2 -2 -3 -3 -3 -3 -3 -3 -2 -2 -1 -1 -1 -1 -1 -1 -1 -1
-1 -1 -2 -2 -3 -3 -3 -4 -3 -3 -3 -3 -3 -4 -4 -4 -4 -5 -5 -5 -4 -4 -4 -3 -3 -5 -5 -3 -2 -3 -3 -4 -4 -4 -2 -2 -4 -4 -3 -0 -1 -2 -2 -1 -2 -2 -2 -1 -1 -1 -2 -2 -2 -3 -3 -3 -3 -3 -3 -2 -2 -1 -2 -2 -1 -1 -1 -1 -2
-2 -2 -2 -3 -3 -3 -3 -3 -3 -3 -3 -3 -4 -4 -4 -5 -4 -3 -4 -5 -6 -6 -6 -5 -4 -4 -3 -2 -2 -1 -0 0 -3 -6 -6 -4 -4 -4 -3 -1 -0 -1 -2 -2 -2 -2 -2 -2 -1 -1 -2 -3 -3 -3 -3 -3 -3 -2 -2 -2 -1 -1 -1 -2 -2 -2 -2 -1 -2
-2 -2 -3 -3 -3 -3 -3 -2 -3 -3 -4 -4 -4 -4 -4 -5 -6 -5 -4 -4 -4 -6 -6 -6 -5 -5 -5 -3 -3 -4 -3 -0 0 -2 -5 -6 -4 -3 -2 -2 -1 -1 -2 -3 -3 -2 -1 -2 -1 -2 -2 -3 -3 -3 -3 -3 -3 -2 -2 -2 -1 -1 -1 -1 -2 -2 -2 -2 -2
-3 -3 -3 -3 -2 -3 -3 -3 -3 -3 -4 -4 -5 -5 -4 -4 -6 -7 -7 -5 -3 -3 -4 -4 -4 -4 -4 -4 -3 -5 -7 -6 -2 -1 -1 -4 -5 -4 -2 0 -1 -1 -1 -2 -3 -2 -1 -1 -1 -2 -3 -4 -4 -4 -4 -3 -3 -3 -2 -2 -2 -2 -1 -1 -2 -2 -2 -2 -2
-3 -3 -3 -3 -2 -3 -3 -4 -4 -4 -4 -4 -5 -5 -5 -4 -5 -5 -6 -7 -5 -3 -2 -3 -4 -3 -2 -2 -2 -2 -4 -6 -6 -3 -0 -0 -4 -5 -4 0 1 -1 -2 -1 -1 -1 -1 -1 -1 -2 -3 -5 -5 -5 -4 -4 -4 -4 -3 -3 -2 -2 -2 -2 -2 -2 -1 -1 -1
-3 -2 -2 -2 -3 -3 -4 -4 -4 -4 -4 -4 -4 -5 -6 -6 -5 -4 -4 -5 -5 -3 -1 -0 -3 -4 -4 -3 -3 -2 -1 -2 -5 -5 -2 1 -1 -5 -6 -2 1 1 -1 -2 -1 -0 -0 -1 -2 -3 -4 -6 -6 -5 -5 -5 -4 -4 -3 -3 -3 -2 -2 -2 -2 -2 -1 -0 0
-3 -2 -2 -3 -3 -3 -4 -4 -4 -4 -4 -4 -4 -5 -5 -6 -6 -5 -4 -3 -5 -4 -2 1 0 -2 -4 -4 -3 -2 -1 -0 -4 -5 -5 -2 -1 -3 -5 -6 -1 1 1 -1 -2 -1 -0 -1 -2 -3 -4 -6 -7 -6 -5 -5 -5 -4 -3 -4 -3 -2 -2 -2 -2 -1 -0 0 1
-3 -3 -3 -3 -4 -4 -4 -4 -4 -5 -4 -4 -4 -4 -4 -5 -5 -5 -4 -3 -4 -5 -5 -2 -1 -1 -2 -4 -4 -2 -0 2 -1 -4 -6 -5 -3 -3 -4 -6 -4 -1 1 -0 -1 -1 -1 -2 -2 -3 -4 -5 -6 -6 -6 -5 -5 -4 -4 -4 -4 -3 -2 -2 -2 -1 0 1 1
-4 -4 -4 -4 -4 -4 -4 -3 -4 -4 -5 -6 -5 -4 -4 -4 -5 -4 -4 -3 -3 -4 -4 -4 -3 -3 -3 -4 -5 -4 -2 1 1 -1 -4 -6 -4 -3 -3 -5 -4 -3 -1 -1 -2 -2 -1 -2 -3 -3 -3 -4 -5 -5 -5 -5 -5 -4 -4 -4 -4 -4 -2 -0 -1 -1 -0 1 1
-4 -5 -5 -4 -4 -4 -5 -5 -3 -3 -4 -6 -7 -6 -5 -4 -4 -4 -3 -3 -2 -2 -3 -5 -4 -3 -3 -4 -5 -5 -4 -2 1 0 -2 -5 -4 -3 -3 -4 -5 -3 -1 -0 -2 -2 -2 -1 -2 -2 -3 -3 -4 -4 -4 -5 -4 -4 -4 -4 -4 -4 -3 -1 0 -0 -1 -1 1
-4 -4 -5 -5 -4 -3 -4 -7 -6 -4 -3 -4 -6 -6 -5 -4 -3 -2 -2 -4 -4 -3 -3 -5 -6 -4 -3 -3 -4 -5 -5 -4 -2 -0 -1 -3 -4 -3 -2 -3 -4 -4 -3 0 -1 -1 -2 -1 -1 -1 -2 -2 -3 -3 -3 -4 -5 -5 -4 -4 -4 -4 -3 -2 -1 -0 -1 -1 -1
Height
5742 5740 5739 5737 5736 5734 5732 5731 5729 5727 5726 5724 5722 5720 5719 5717 5715 5713 5711 5709 5707 5705 5703 5701 5699 5697 5695 5692 5690 5688 5686 5683 5681 5678 5676 5673 5671 5668 5666 5663 5661 5658 5656 5654 5651 5649 5647 5644 5642 5639 5636 5633 5631 5628 5625 5622 5619 5617 5614 5610 5607 5605 5602 5599 5595 5592 5589 5586 5582
5739 5737 5736 5734 5732 5731 5729 5727 5725 5724 5722 5720 5718 5717 5715 5713 5711 5709 5707 5705 5703 5701 5699 5697 5694 5692 5690 5687 5685 5683 5681 5678 5676 5673 5671 5668 5666 5663 5661 5658 5655 5653 5650 5648 5645 5643 5641 5638 5636 5633 5630 5627 5625 5622 5619 5616 5613 5610 5607 5604 5601 5597 5595 5592 5588 5585 5582 5578 5575
5736 5734 5732 5731 5729 5727 5726 5724 5722 5720 5718 5717 5715 5712 5711 5709 5707 5705 5702 5701 5698 5696 5694 5692 5690 5687 5685 5682 5680 5678 5675 5673 5671 5668 5666 5663 5661 5658 5655 5652 5650 5647 5645 5642 5640 5637 5634 5632 5629 5627 5624 5621 5618 5616 5612 5609 5606 5603 5600 5597 5594 5591 5587 5584 5581 5578 5575 5571 5567
5732 5731 5729 5727 5726 5724 5722 5720 5718 5717 5715 5713 5711 5709 5707 5705 5703 5701 5698 5696 5694 5692 5690 5687 5685 5683 5680 5678 5675 5673 5670 5668 5665 5663 5660 5658 5655 5652 5650 5647 5644 5642 5639 5636 5634 5631 5628 5626 5623 5620 5617 5615 5612 5609 5606 5603 5600 5597 5593 5590 5587 5583 5580 5577 5573 5570 5567 5564 5560
5729 5727 5726 5724 5722 5721 5719 5717 5715 5713 5711 5709 5707 5705 5703 5701 5699 5697 5694 5692 5690 5687 5685 5683 5680 5678 5676 5673 5671 5668 5665 5663 5660 5658 5655 5652 5650 5647 5644 5642 5639 5636 5633 5631 5628 5625 5622 5619 5617 5614 5611 5608 5605 5602 5599 5596 5593 5590 5586 5583 5579 5576 5572 5569 5565 5562 5559 5556 5552
5726 5724 5722 5721 5719 5717 5715 5713 5712 5709 5707 5706 5703 5701 5699 5697 5695 5692 5690 5688 5685 5683 5681 5678 5676 5673 5671 5668 5666 5663 5660 5658 5655 5652 5650 5647 5644 5642 5639 5636 5633 5630 5627 5625 5622 5619 5616 5613 5611 5607 5604 5602 5599 5596 5592 5588 5586 5582 5579 5576 5572 5568 5565 5561 5557 5554 5551 5548 5545
5722 5721 5719 5717 5716 5714 5712 5710 5708 5706 5704 5702 5700 5697 5695 5693 5691 5688 5686 5683 5681 5678 5676 5673 5671 5668 5666 5663 5661 5658 5656 5653 5650 5647 5645 5642 5639 5636 5633 5631 5628 5625 5622 5619 5616 5613 5610 5607 5604 5601 5598 5595 5592 5589 5585 5582 5578 5575 5572 5568 5564 5561 5557 5553 5549 5546 5542 5539 5537
5719 5717 5716 5714 5712 5710 5708 5706 5704 5702 5700 5698 5696 5693 5691 5689 5686 5684 5682 5679 5676 5674 5671 5669 5666 5664 5661 5658 5656 5653 5651 5648 5645 5642 5639 5637 5634 5631 5628 5625 5622 5619 5616 5613 5610 5607 5603 5600 5597 5594 5591 5588 5585 5582 5578 5574 5571 5567 5564 5560 5557 5553 5549 5545 5541 5538 5534 5531 5528
5716 5714 5712 5710 5708 5706 5704 5702 5700 5698 5696 5693 5691 5689 5687 5684 5682 5679 5677 5674 5672 5669 5667 5664 5661 5659 5656 5653 5651 5648 5645 5643 5640 5637 5634 5631 5628 5626 5622 5619 5617 5613 5610 5607 5603 5600 5597 5594 5590 5587 5584 5581 5577 5574 5570 5567 5563 5560 5556 5552 5549 5545 5542 5537 5533 5530 5527 5523 5520
5712 5711 5709 5707 5704 5702 5700 5698 5696 5694 5692 5689 5687 5685 5682 5680 5677 5675 5672 5669 5667 5664 5662 5659 5657 5654 5651 5649 5646 5643 5640 5637 5635 5632 5629 5626 5623 5620 5617 5614 5611 5607 5604 5600 5597 5594 5590 5587 5583 5580 5577 5573 5570 5567 5563 5559 5555 5552 5549 5545 5541 5537 5534 5530 5526 5522 5519 5516 5513
5709 5707 5705 5703 5701 5698 5696 5694 5692 5690 5687 5685 5682 5680 5677 5675 5672 5670 5667 5665 5662 5659 5657 5654 5652 5649 5647 5644 5641 5638 5636 5632 5630 5627 5624 5621 5617 5614 5611 5608 5604 5601 5597 5594 5590 5587 5583 5580 5577 5573 5570 5566 5562 5559 5555 5552 5547 5544 5541 5537 5533 5530 5527 5523 5519 5515 5512 5509 5506
5706 5703 5701 5699 5697 5694 5692 5690 5688 5685 5683 5681 5678 5676 5673 5670 5668 5665 5663 5660 5657 5655 5652 5650 5647 5645 5642 5639 5636 5633 5631 5627 5624 5621 5618 5615 5612 5608 5605 5601 5598 5594 5591 5587 5583 5579 5576 5573 5569 5566 5563 5559 5555 5551 5547 5544 5540 5537 5533 5529 5526 5522 5519 5515 5512 5508 5505 5502 5499
5702 5700 5697 5695 5693 5691 5688 5686 5683 5681 5679 5676 5674 5671 5668 5666 5663 5661 5658 5656 5653 5651 5648 5645 5642 5640 5637 5634 5631 5628 5625 5622 5619 5616 5612 5609 5606 5602 5599 5595 5591 5587 5584 5580 5576 5572 5568 5565 5562 5558 5555 5552 5548 5544 5540 5536 5532 5529 5525 5522 5518 5515 5511 5508 5504 5501 5498 5495 5492
5698 5696 5693 5691 5689 5687 5684 5682 5679 5677 5674 5672 5669 5667 5664 5662 5659 5657 5654 5652 5649 5646 5643 5641 5637 5635 5632 5629 5626 5622 5619 5616 5613 5610 5606 5603 5599 5596 5592 5588 5584 5580 5577 5572 5568 5564 5561 5557 5554 5550 5547 5544 5540 5536 5532 5528 5525 5521 5517 5514 5510 5507 5503 5500 5497 5494 5491 5488 5485
5694 5692 5689 5687 5685 5682 5680 5677 5675 5672 5670 5667 5665 5662 5660 5657 5655 5652 5650 5647 5644 5642 5639 5636 5632 5629 5626 5623 5620 5617 5614 5610 5607 5604 5600 5597 5593 5589 5585 5582 5577 5573 5569 5565 5561 5557 5552 5549 5546 5542 5539 5535 5532 5528 5524 5521 5517 5513 5509 5506 5502 5499 5496 5492 5489 5487 5484 5481 5478
5690 5687 5685 5683 5681 5678 5676 5673 5671 5668 5666 5663 5661 5658 5656 5653 5651 5648 5646 5643 5640 5637 5633 5631 5627 5624 5621 5617 5614 5612 5608 5604 5601 5597 5594 5590 5586 5582 5578 5574 5570 5566 5562 5557 5553 5549 5545 5541 5537 5533 5530 5527 5523 5520 5516 5513 5509 5506 5502 5498 5495 5492 5489 5486 5482 5480 5477 5474 5472
5685 5683 5681 5679 5676 5674 5672 5669 5667 5664 5662 5659 5657 5654 5652 5649 5646 5643 5641 5638 5635 5632 5628 5625 5622 5619 5616 5612 5608 5605 5602 5599 5595 5591 5587 5583 5579 5575 5571 5567 5562 5558 5554 5549 5545 5541 5537 5533 5529 5525 5522 5518 5515 5512 5508 5505 5502 5498 5495 5492 5488 5485 5482 5479 5476 5473 5471 5468 5466
5681 5679 5677 5674 5672 5670 5667 5665 5662 5660 5658 5655 5652 5650 5647 5644 5642 5638 5635 5632 5630 5627 5623 5620 5616 5613 5610 5607 5603 5599 5595 5592 5588 5584 5580 5576 5572 5568 5563 5559 5555 5550 5546 5541 5537 5533 5529 5525 5521 5517 5514 5511 5507 5504 5501 5497 5495 5492 5488 5485 5482 5479 5477 5473 5470 5467 5465 5462 5460
5677 5675 5672 5670 5668 5665 5663 5661 5658 5656 5653 5651 5648 5645 5642 5639 5637 5634 5631 5627 5624 5621 5618 5615 5611 5607 5604 5600 5597 5592 5588 5585 5581 5577 5572 5568 5564 5560 5556 5551 5547 5542 5537 5533 5529 5525 5521 5517 5513 5510 5507 5503 5500 5497 5494 5491 5488 5485 5482 5479 5477 5474 5471 5468 5465 5462 5459 5457 5454
5673 5671 5668 5666 5664 5661 5659 5657 5654 5652 5649 5646 5643 5640 5637 5634 5631 5628 5625 5622 5619 5616 5612 5609 5605 5602 5597 5594 5590 5586 5581 5577 5573 5569 5565 5560 5556 5552 5548 5544 5539 5534 5529 5525 5521 5517 5513 5509 5505 5502 5499 5496 5493 5490 5487 5485 5482 5480 5477 5474 5471 5469 5466 5463 5460 5457 5454 5451 5448
5669 5667 5664 5662 5660 5657 5655 5652 5649 5647 5644 5641 5638 5635 5632 5629 5626 5623 5620 5617 5613 5610 5606 5602 5599 5595 5591 5587 5583 5579 5574 5570 5566 5562 5557 5553 5548 5544 5540 5536 5532 5527 5522 5517 5513 5509 5505 5502 5498 5495 5492 5490 5487 5484 5481 5479 5477 5474 5472 5469 5466 5463 5460 5457 5454 5451 5448 5445 5442
5665 5662 5660 5658 5655 5653 5650 5647 5644 5642 5639 5636 5633 5630 5627 5624 5621 5617 5614 5611 5607 5603 5600 5596 5592 5588 5584 5580 5576 5572 5567 5563 5559 5554 5550 5546 5541 5537 5532 5527 5523 5519 5515 5510 5506 5502 5498 5495 5492 5488 5486 5483 5481 5478 5476 5473 5471 5468 5466 5463 5461 5458 5455 5452 5448 5445 5442 5438 5435
5661 5658 5656 5653 5651 5648 5645 5642 5640 5637 5634 5631 5628 5625 5622 5618 5615 5612 5608 5604 5601 5597 5593 5589 5585 5581 5577 5572 5568 5564 5560 5556 5552 5547 5543 5538 5534 5530 5525 5521 5516 5512 5508 5503 5499 5495 5492 5488 5485 5482 5479 5477 5475 5472 5470 5467 5464 5462 5459 5457 5454 5451 5448 5446 5442 5439 5435 5432 5428
5657 5654 5652 5649 5646 5643 5641 5638 5635 5632 5629 5626 5623 5619 5616 5613 5609 5606 5602 5598 5594 5590 5586 5582 5578 5574 5569 5565 5561 5557 5553 5549 5545 5541 5536 5532 5527 5523 5518 5514 5510 5506 5502 5497 5493 5489 5485 5481 5478 5475 5472 5470 5467 5465 5463 5461 5458 5455 5452 5449 5447 5444 5441 5438 5435 5432 5428 5425 5421
5652 5650 5647 5644 5642 5639 5636 5633 5630 5627 5624 5620 5617 5614 5611 5607 5603 5599 5596 5592 5587 5583 5579 5575 5571 5567 5563 5558 5554 5550 5546 5542 5537 5534 5530 5525 5521 5516 5512 5508 5504 5500 5496 5492 5488 5483 5479 5475 5472 5468 5465 5462 5460 5457 5455 5453 5451 5448 5445 5442 5438 5436 5432 5430 5427 5424 5420 5417 5413
5648 5645 5642 5639 5637 5634 5631 5628 5625 5622 5618 5615 5612 5608 5604 5601 5597 5593 5589 5585 5581 5577 5573 5569 5564 5560 5556 5552 5547 5543 5538 5534 5530 5526 5522 5519 5515 5511 5507 5502 5498 5494 5490 5486 5482 5478 5474 5470 5466 5462 5458 5455 5452 5450 5447 5445 5442 5440 5437 5433 5430 5427 5424 5421 5417 5414 5411 5408 5405
5643 5641 5637 5635 5632 5629 5626 5622 5619 5616 5612 5609 5606 5602 5598 5594 5590 5587 5583 5579 5575 5570 5566 5562 5558 5554 5550 5545 5541 5536 5532 5527 5523 5520 5516 5512 5508 5505 5501 5497 5492 5488 5484 5480 5476 5472 5468 5464 5460 5456 5452 5448 5444 5442 5439 5437 5434 5431 5428 5425 5422 5418 5415 5412 5408 5405 5402 5399 5395
5639 5636 5632 5629 5627 5623 5620 5617 5614 5610 5607 5603 5599 5596 5592 5588 5584 5580 5576 5572 5568 5564 5560 5555 5551 5547 5543 5539 5534 5530 5526 5522 5517 5513 5510 5506 5502 5498 5495 5491 5487 5482 5478 5474 5470 5466 5462 5458 5454 5450 5446 5442 5437 5434 5432 5429 5426 5423 5420 5417 5413 5410 5406 5402 5399 5395 5392 5389 5385
5634 5631 5627 5624 5621 5618 5615 5611 5608 5604 5601 5597 5593 5589 5586 5582 5578 5574 5570 5566 5562 5557 5553 5549 5545 5540 5536 5532 5528 5524 5520 5515 5511 5507 5504 5500 5497 5493 5489 5485 5481 5477 5472 5468 5464 5460 5456 5452 5448 5444 5440 5435 5431 5427 5424 5421 5417 5414 5411 5408 5404 5401 5397 5393 5389 5386 5382 5378 5375
5629 5626 5622 5619 5616 5612 5609 5606 5602 5598 5595 5591 5587 5583 5579 5575 5572 5567 5563 5560 5555 5551 5547 5542 5538 5534 5530 5525 5521 5517 5513 5509 5505 5501 5498 5494 5491 5487 5483 5479 5475 5471 5467 5462 5458 5454 5450 5446 5442 5437 5433 5428 5424 5420 5416 5413 5409 5406 5402 5399 5395 5392 5388 5384 5380 5376 5372 5368 5365
5623 5620 5617 5614 5611 5607 5604 5600 5596 5592 5589 5585 5581 5577 5573 5569 5565 5561 5557 5553 5549 5544 5540 5536 5532 5528 5524 5520 5516 5512 5508 5504 5500 5496 5492 5488 5485 5481 5477 5474 5470 5465 5461 5456 5452 5447 5443 5439 5435 5430 5426 5421 5417 5413 5409 5405 5401 5397 5394 5390 5386 5382 5378 5374 5370 5366 5362 5359 5355
5618 5615 5612 5609 5605 5602 5598 5594 5591 5587 5583 5579 5575 5571 5567 5563 5559 5555 5551 5547 5543 5538 5534 5529 5525 5522 5518 5514 5510 5506 5502 5498 5494 5491 5487 5483 5479 5475 5472 5467 5464 5459 5455 5450 5446 5441 5437 5432 5428 5423 5418 5414 5409 5405 5401 5397 5393 5389 5386 5382 5378 5374 5369 5365 5361 5357 5353 5349 5346
5613 5610 5607 5603 5600 5596 5592 5589 5585 5581 5577 5573 5569 5565 5561 5557 5553 5548 5544 5540 5536 5532 5528 5524 5520 5516 5512 5508 5504 5501 5497 5492 5488 5484 5481 5477 5474 5470 5466 5462 5458 5453 5449 5444 5439 5435 5430 5426 5421 5416 5411 5406 5402 5397 5393 5389 5385 5381 5377 5373 5369 5366 5361 5357 5353 5349 5345 5341 5337
5608 5605 5602 5598 5595 5591 5587 5583 5579 5575 5571 5567 5563 5558 5554 5551 5547 5542 5538 5534 5530 5526 5522 5518 5514 5510 5506 5502 5498 5495 5491 5487 5483 5479 5475 5471 5468 5464 5461 5456 5452 5447 5443 5438 5433 5428 5423 5418 5413 5408 5403 5398 5394 5389 5386 5382 5377 5374 5370 5366 5362 5358 5354 5350 5346 5342 5338 5334 5330
5603 5600 5596 5592 5589 5585 5581 5577 5573 5569 5565 5561 5557 5552 5548 5544 5540 5536 5532 5529 5524 5520 5516 5512 5508 5504 5500 5496 5492 5489 5486 5482 5478 5474 5469 5466 5462 5459 5455 5451 5446 5442 5437 5432 5427 5422 5417 5412 5406 5401 5396 5391 5386 5382 5378 5374 5370 5366 5363 5359 5355 5351 5347 5343 5339 5335 5332 5327 5323
5598 5595 5591 5587 5583 5579 5576 5572 5567 5563 5559 5555 5551 5547 5543 5538 5534 5530 5526 5523 5519 5515 5511 5507 5503 5500 5496 5492 5488 5484 5480 5477 5473 5469 5464 5460 5456 5452 5449 5445 5440 5436 5431 5426 5420 5415 5410 5405 5399 5393 5388 5383 5378 5374 5371 5367 5363 5360 5356 5353 5349 5345 5342 5338 5334 5330 5326 5322 5318
5592 5589 5586 5582 5578 5574 5570 5566 5562 5558 5553 5549 5545 5541 5537 5533 5529 5524 5520 5517 5513 5510 5506 5502 5498 5494 5491 5488 5484 5480 5476 5472 5468 5464 5459 5454 5450 5446 5442 5438 5434 5429 5425 5420 5414 5409 5403 5398 5392 5387 5381 5376 5372 5367 5364 5360 5357 5354 5351 5347 5344 5340 5337 5332 5329 5325 5321 5318 5314
5587 5583 5580 5576 5572 5568 5564 5560 5556 5552 5548 5543 5539 5535 5531 5527 5523 5519 5514 5511 5507 5504 5501 5497 5493 5489 5486 5482 5479 5476 5472 5467 5463 5458 5454 5449 5444 5439 5436 5432 5427 5422 5418 5413 5408 5402 5397 5392 5386 5380 5375 5370 5366 5362 5358 5355 5352 5348 5345 5342 5339 5335 5332 5328 5324 5321 5317 5314 5310
5581 5577 5574 5570 5566 5562 5558 5554 5550 5546 5542 5538 5533 5529 5525 5521 5517 5513 5509 5505 5501 5498 5495 5492 5488 5484 5480 5477 5474 5471 5467 5462 5458 5453 5449 5444 5438 5434 5429 5425 5421 5416 5412 5407 5402 5396 5391 5386 5380 5375 5370 5365 5361 5357 5353 5350 5347 5344 5341 5337 5334 5331 5327 5324 5321 5317 5313 5310 5307
5575 5572 5568 5564 5560 5557 5552 5548 5544 5540 5536 5532 5528 5523 5519 5515 5511 5507 5503 5500 5496 5492 5489 5486 5483 5479 5475 5472 5469 5466 5462 5458 5453 5448 5443 5439 5433 5428 5424 5419 5415 5410 5405 5401 5396 5390 5385 5380 5375 5370 5365 5360 5356 5352 5349 5346 5342 5339 5336 5333 5330 5327 5324 5321 5317 5314 5311 5307 5304
5569 5566 5562 5558 5554 5551 5547 5543 5539 5534 5530 5526 5522 5517 5513 5510 5506 5502 5498 5495 5491 5487 5484 5481 5478 5474 5471 5467 5463 5460 5457 5453 5448 5443 5439 5434 5429 5423 5419 5414 5409 5404 5399 5395 5390 5385 5380 5375 5370 5366 5361 5356 5352 5348 5345 5342 5338 5335 5332 5329 5326 5323 5320 5317 5314 5311 5308 5305 5301